STARLINK-34650 (66258 NORAD) Tracking and Keplerian Element Data

This shows tracking and keplerian element data for the satellite.

Feedback or suggestion? Click here.




ElementValue
Catalog66258
NameSTARLINK-34650
Epoch Orbit906
Epoch Day354.13144835
Epoch Year2025
RAAN294.2934
Inclination53.1611
Eccentricity0.000182
Argument of Perigee89.0642
Mean Anonmoly271.0572
Mean Motion15.39619672
Decay Rate0.00011583
L11 66258U 25245AA 25354.13144835 .00011583 00000+0 29913-3 0 9997
L22 66258 53.1611 294.2934 0001820 89.0642 271.0572 15.39619672 9067



Live tracking and technical data element details for STARLINK-34650 (NORAD 66258). STARLINK-34650 can be tracked NOW for your location showing map with azimuth and elevation plus other details from your city location.







IsCatalogInMostPopularTable: catalog: 66258, numindb: 3
Update: records affected: 1



GetName: 66258 STARLINK-34650

Hit Count: updated at: Sun, 08 Feb 2026 07:58:41 GMT